DECAYED

CZ-6A DEB, 61165 (Decayed)

Orbit data source: Space-Track

CZ-6A DEB, 61165 was space debris in LEO originally from a launch on Tue, 06 Aug 2024 UTC launched from the Taiyaun Space Center, China (TSC). Debris objects in space refer to the collection of defunct objects orbiting the Earth. Examples of debris include non-operational satellites, rocket bodies, and fragments generated from explosions, collisions, or faulty payload assembly.

Not visible in the next 10 days
Identifier
61165, 2024-140RK
Orbit
Decayed
Country
Flag of CNCN / PRC
Related business
Manufacturer
SAST
Mission
Decayed spacecraft
Bus & Motor
Unknown
Mass
Unknown
Launch date (UTC)
2024-08-06 (2 years ago)
Launch vehicle
Unknown
Launch site
Taiyaun Space Center, China (TSC)
Object type
Payload
Rocket body
Debris
Shape & HBR
Unknown shape, 0.1 m
Radar Cross Section
Medium (>0.1 m² and <1 m²)

Expand to show TLE details & history
Last TLE update: 1 year ago

TLE from 1 year ago
0 CZ-6A DEB
1 61165U 24140RK  25086.12534831  .01834044  00000-0  31448-1 0  9993
2 61165  89.2622 330.6741 0033654 237.9226 121.8765 15.47277191 32285
Epoch: 2025-03-27T03:00Z
TLE epoch observation values (Epoch: 2025-03-27T03:00:30.093Z)
Latitude
-0.00012°
Longitude
100.74557°
Altitude
440.078 km
Speed
7.641 km/s
True Right ascension
22h 02m 41s
True Declination
0° 00' 00"
Sunlit
Object was in daylight at epoch
Visualization orbit readout
Latitude
Unknown
Longitude
Unknown
Altitude
Unknown
Speed
Unknown
Apparent Right ascension
Unknown
Apparent Declination
Unknown
Sunlit
N/A
Visualization observer readout
Local Sidereal Time
07:24:29
Azimuth
Unknown
Elevation
Unknown
Doppler factor
Unknown
Orbital elements
Apogee altitude
444.348 km
Perigee altitude
398.582 km
Semi-major axis
6,799.602 km
Eccentricity
0.00337
Inclination
89.2622°
RAAN
330.6741°
Arg. of periapsis
237.9226°
True anomaly
122.20326°
Mean anomaly
121.8765°
Eccentric anomaly
122.03995°
Mean motion
3.87095 °/min
Orbital period
93 mins
BSTAR
0.031448
Loading maneuver chart data...
Computing Atmospheric mass density...
Loading historical data...
Loading historical data...
Loading historical data...
Loading historical data...
Loading historical data...
Loading historical data...
Loading historical data...

Documentation

Showing up to 5 results
|